TimeCAT,TemperatureF,Dew PointF,Humidity,Sea Level PressureIn,VisibilityMPH,Wind Direction,Wind SpeedMPH,Gust SpeedMPH,PrecipitationIn,Events,Conditions,WindDirDegrees,DateUTC
1:00 AM,64.4,46.4,52,30.09,-9999.0,East,4.6,-,N/A,,Clear,100,2013-05-15 23:00:00
2:00 AM,63,47,45,,6,East,3.5,,,,Clear,80,2013-05-16 00:00:00
2:00 AM,62.6,46.4,55,30.09,-9999.0,East,3.5,-,N/A,,Clear,80,2013-05-16 00:00:00
5:00 AM,60.8,46.4,59,30.06,-9999.0,NNE,9.2,-,N/A,,Clear,30,2013-05-16 03:00:00
6:00 AM,60.8,46.4,59,30.06,-9999.0,NNW,3.5,-,N/A,,Clear,330,2013-05-16 04:00:00
7:00 AM,59.0,48.2,67,30.09,-9999.0,NE,5.8,-,N/A,,Clear,40,2013-05-16 05:00:00
8:00 AM,62.6,48.2,59,30.09,-9999.0,ENE,4.6,-,N/A,,Clear,60,2013-05-16 06:00:00
9:00 AM,69.8,50.0,49,30.09,-9999.0,NNE,9.2,-,N/A,,Clear,30,2013-05-16 07:00:00
10:00 AM,75.2,48.2,38,30.09,-9999.0,NE,9.2,-,N/A,,Clear,50,2013-05-16 08:00:00
11:00 AM,80.6,50.0,34,30.09,-9999.0,NE,10.4,-,N/A,,Clear,40,2013-05-16 09:00:00
12:00 PM,82.4,48.2,30,30.06,-9999.0,NNE,9.2,-,N/A,,Clear,30,2013-05-16 10:00:00
1:00 PM,84.2,48.2,29,30.04,-9999.0,East,9.2,-,N/A,,Clear,90,2013-05-16 11:00:00
3:00 PM,86.0,50.0,29,30.01,-9999.0,NE,6.9,-,N/A,,Clear,50,2013-05-16 13:00:00
4:00 PM,84.2,48.2,29,29.98,-9999.0,Variable,2.3,-,N/A,,Clear,0,2013-05-16 14:00:00
5:00 PM,84.2,46.4,27,30.01,-9999.0,Variable,1.2,-,N/A,,Clear,0,2013-05-16 15:00:00
6:00 PM,80.6,48.2,32,30.01,-9999.0,North,4.6,-,N/A,,Clear,10,2013-05-16 16:00:00
7:00 PM,77.0,48.2,36,30.04,-9999.0,North,4.6,-,N/A,,Clear,10,2013-05-16 17:00:00
8:00 PM,71,50,37,,6,NNE,2.3,,,,Partly Cloudy,20,2013-05-16 18:00:00
8:00 PM,71.6,50.0,46,30.06,-9999.0,Variable,2.3,-,N/A,,Clear,0,2013-05-16 18:00:00
9:00 PM,69.8,50.0,49,30.06,-9999.0,Variable,2.3,-,N/A,,Clear,0,2013-05-16 19:00:00